Location: *
(45.5167°N, 11.9322°E)
Time: 01:37:11
(UTC+00:00)

Daily predictions for brighter satellites

Satellite Brightness Start Highest point End
(mag) Time Altitude Azimuth Time Altitude Azimuth Time Altitude Azimuth
USA 267 4.4 00:00:59 10° NE 00:05:37 37° N 00:05:37 37° N
Lacrosse 5 4.5 00:29:38 16° NE 00:29:38 16° NE 00:31:15 10° NE
Resurs 1-4 Rocket 4.3 00:27:08 10° NNE 00:29:07 22° NE 00:29:07 22° NE
Cosmos 2344 4.5 00:44:19 37° E 00:44:19 37° E 00:50:36 10° NE
Cosmos 2278 Rocket 4.0 00:51:01 25° N 00:51:01 25° N 00:53:37 10° NNE
SL-16 R/B 3.8 00:53:22 33° NNW 00:53:22 33° NNW 00:56:34 10° NNW
Cosmos 1943 Rocket 3.8 01:08:04 27° E 01:08:04 27° E 01:11:31 10° NE
CZ-2D R/B 3.7 01:05:56 10° NNE 01:08:35 31° NNE 01:08:35 31° NNE
NOSS 3-2 (A) 4.2 01:17:03 48° ENE 01:17:03 48° ENE 01:21:55 10° NE
ATLAS 5 CENTAUR R/B 4.1 01:18:58 19° N 01:18:58 19° N 01:21:09 10° NNE
ATLAS 3B R/B 3.6 01:19:23 36° ESE 01:19:23 36° ESE 01:25:01 10° NE
NOSS 3-2 (C) 4.3 01:20:40 42° E 01:20:40 42° E 01:25:42 10° NE
Meteor 1-26 Rocket 4.3 01:56:48 70° NE 01:56:48 70° NE 02:01:54 10° NNE
ADEOS II 2.3 01:51:52 10° NNE 01:56:26 65° NE 01:56:26 65° NE
Spot 4 Rocket 4.3 01:53:01 10° NNE 01:57:40 63° ENE 01:57:40 63° ENE
CENTAUR R/B 2.6 01:59:00 59° SE 01:59:29 61° ESE 02:06:18 10° NE
IRS-1D 4.4 02:02:15 10° N 02:06:06 41° NNW 02:06:06 41° NNW
Cosmos 2369 Rocket 2.1 02:07:32 83° ESE 02:07:32 83° ESE 02:13:12 10° NNE
Lacrosse 5 3.4 02:08:52 19° NNW 02:11:36 32° NNE 02:16:07 10° E
Resurs 1-4 Rocket 3.6 02:07:20 10° N 02:10:11 24° NW 02:10:11 24° NW
Cosmos 44 3.9 02:17:16 49° SE 02:17:33 49° ESE 02:22:12 10° NE
Cosmos 540 Rocket 4.5 02:19:11 35° NNW 02:19:11 35° NNW 02:22:57 10° N
Cosmos 1707 Rocket 3.9 02:19:51 63° ENE 02:19:51 63° ENE 02:23:55 10° NNE
Unknown 4.3 02:23:27 53° ENE 02:23:27 53° ENE 02:26:42 10° ENE
USA 238 DEB 4.0 02:21:37 45° WNW 02:22:42 49° NW 02:29:27 10° NNE
USA 238 4.0 02:21:42 45° WNW 02:22:48 49° NW 02:29:35 10° NNE
Unknown 4.2 02:25:04 55° ENE 02:25:04 55° ENE 02:28:22 10° ENE
Unknown 4.1 02:26:40 57° ENE 02:26:40 57° ENE 02:30:01 10° ENE
Unknown 4.1 02:28:15 59° ENE 02:28:15 59° ENE 02:31:41 10° ENE
Cosmos 1733 Rocket 4.1 02:24:04 10° N 02:28:22 46° ENE 02:32:39 10° SSE
Atlas Centaur 2 4.1 02:29:29 20° S 02:29:29 20° S 02:33:38 10° SE
Unknown 4.4 02:29:37 43° NNE 02:29:37 43° NNE 02:32:37 10° NE
Unknown 4.0 02:29:52 62° NE 02:29:52 62° NE 02:33:22 10° ENE
SeaSat 1 4.1 02:26:50 10° NE 02:31:08 29° ESE 02:34:22 15° SSE
Unknown 3.9 02:33:04 66° NE 02:33:04 66° NE 02:36:42 10° ENE
Cosmos 1092 Rocket 3.9 02:31:12 36° S 02:33:56 82° E 02:40:08 10° N
Meteor 1-28 Rocket 4.3 02:35:36 36° N 02:35:36 36° N 02:37:55 10° N
Starlink (trailer) 3.8 02:34:37 68° NE 02:34:37 68° NE 02:38:18 10° ENE
Unknown 3.8 02:36:16 70° NNE 02:36:16 70° NNE 02:40:01 10° ENE
ARIANE 5 R/B 2.9 02:32:28 10° N 02:36:58 45° NW 02:36:58 45° NW
Unknown 3.7 02:37:51 72° NNE 02:37:51 72° NNE 02:41:41 10° ENE
SL-24 DEB 4.4 02:35:57 30° SSE 02:38:13 71° E 02:42:56 10° N
SL-4 R/B 2.6 02:41:21 43° ESE 02:41:21 43° ESE 02:43:52 10° ESE
ADEOS 4.3 02:35:38 10° NNE 02:40:43 51° E 02:44:41 16° S
Cosmos 836 Rocket 4.5 02:42:18 57° W 02:42:40 59° WNW 02:47:50 10° NNE
Unknown 3.6 02:44:15 72° NNW 02:44:15 72° NNW 02:48:20 10° NE
Unknown 3.6 02:45:53 70° NNW 02:45:53 70° NNW 02:50:01 10° NE
Unknown 3.6 02:46:20 69° NNW 02:46:21 69° NNW 02:50:30 10° NE
Meteor 1-11 Rocket 4.3 02:42:36 10° N 02:48:09 57° ENE 02:53:35 10° SSE
Unknown 3.6 02:49:02 66° NW 02:49:10 67° NNW 02:53:18 10° NE
Cosmos 1943 Rocket 2.5 02:49:36 41° WNW 02:50:18 43° WNW 02:55:37 10° NNE
CZ-2D R/B 4.0 02:47:43 10° NNW 02:49:53 14° NW 02:49:53 14° NW
Cosmos 1812 4.0 02:48:22 18° SSE 02:50:51 40° E 02:54:30 10° NNE
Unknown 3.7 02:50:43 62° NW 02:50:56 63° NNW 02:55:04 10° NE
Unknown 3.6 02:51:39 63° NW 02:51:54 64° NNW 02:56:02 10° NE
Nadezhda 4 Rocket 4.2 02:52:13 42° WSW 02:53:24 47° WNW 02:59:18 10° N
Unknown 3.7 02:53:53 58° NW 02:54:14 61° NNW 02:58:21 10° NE
Cosmos 1315 Rocket 4.1 02:51:45 12° SSE 02:55:18 40° E 02:59:12 10° NNE
Unknown 3.7 02:55:26 57° WNW 02:55:51 61° NNW 02:59:57 10° NE
Unknown 3.7 02:55:59 56° WNW 02:56:25 61° NNW 03:00:32 10° NE
Cosmos 2344 3.9 02:54:20 33° W 02:57:35 52° NW 03:05:54 10° NE
Cosmos 1627 Rocket 4.5 02:52:56 18° S 02:57:48 88° WNW 03:04:15 10° N
Unknown 3.7 02:58:32 54° WNW 02:59:05 60° NNW 03:03:12 10° NE
Cosmos 1782 4.1 03:01:20 27° NW 03:01:20 27° NW 03:03:48 10° N
Unknown 3.9 03:01:48 49° WNW 03:02:30 56° NNW 03:06:36 10° NE
ATLAS 5 CENTAUR R/B 4.4 03:02:16 10° NNW 03:03:46 11° N 03:05:20 10° N
Unknown 3.9 03:03:22 47° WNW 03:04:07 55° NNW 03:08:13 10° NE
Unknown 4.0 03:04:59 45° WNW 03:05:49 54° NNW 03:09:53 10° NE
NOSS 3-2 (A) 4.5 03:04:27 25° WNW 03:06:52 33° NNW 03:12:57 10° NNE
Unknown 4.0 03:06:36 43° WNW 03:07:31 53° NNW 03:11:35 10° NE
ATLAS 3B R/B 2.9 03:06:39 32° WSW 03:09:34 54° NW 03:16:02 10° NNE
Lacrosse 5 rocket 3.0 03:11:38 20° S 03:11:38 20° S 03:13:28 10° S
NOSS 3-2 (C) 4.1 03:08:07 29° W 03:10:34 41° NW 03:16:57 10° NNE
Unknown 4.0 03:09:48 40° WNW 03:10:51 51° NNW 03:14:54 10° NE
Cosmos 1400 Rocket 2.9 03:11:55 47° W 03:12:13 48° WNW 03:16:01 10° N
Unknown 4.1 03:11:27 38° WNW 03:12:34 50° NNW 03:16:35 10° NE
Unknown 4.1 03:12:58 37° WNW 03:14:10 49° NNW 03:18:12 10° NE
Unknown 4.1 03:14:32 36° WNW 03:15:47 49° NNW 03:19:50 10° NE
Spot 2 4.2 03:12:22 10° N 03:16:55 61° WNW 03:18:56 30° SW
Unknown 4.3 03:16:04 31° WNW 03:17:21 41° NNW 03:21:13 10° NE
Unknown 4.2 03:16:25 34° WNW 03:17:46 47° NNW 03:21:48 10° NE
Cosmos 1553 Rocket 4.0 03:11:31 10° N 03:17:50 84° E 03:24:00 10° S
Unknown 4.1 03:17:37 34° WNW 03:19:00 49° NNW 03:23:02 10° NE
Cosmos 1666 4.3 03:16:32 10° N 03:20:02 36° ENE 03:23:31 10° SE
Aureole 2 Rocket 1.9 03:19:49 55° SSE 03:20:15 70° ESE 03:22:53 10° NNE
Meteor 1-31 Rocket 4.5 03:18:40 10° NNE 03:22:16 34° E 03:25:49 10° SSE
IDEFIX/ARIANE 42P 2.5 03:16:58 10° NNE 03:22:16 80° WNW 03:27:32 10° SSW
Cosmos 773 Rocket 4.0 03:17:55 15° SSW 03:22:17 84° ESE 03:27:28 10° NNE
Unknown 4.2 03:20:47 31° WNW 03:22:19 47° NNW 03:26:21 10° NE
Cosmos 2242 Rocket 3.6 03:18:56 10° S 03:23:28 89° E 03:28:00 10° N
Unknown 4.2 03:22:24 30° WNW 03:24:00 46° NNW 03:28:01 10° NE
Cosmos 1340 2.7 03:20:28 10° N 03:24:17 82° E 03:28:03 10° SSE
H-2A R/B 2.2 03:21:23 10° NNE 03:25:14 89° W 03:28:28 14° SSW
Unknown 4.3 03:24:10 28° WNW 03:25:52 43° NNW 03:29:52 10° NE
Unknown 4.3 03:25:26 27° WNW 03:27:09 42° NNW 03:31:04 10° NE
Unknown 4.3 03:25:36 28° WNW 03:27:20 45° NNW 03:31:21 10° NE
Cosmos 1862 Rocket 3.7 03:24:46 22° SSW 03:27:33 56° WNW 03:31:59 10° N
Iridium 4 Rocket 3.5 03:26:11 27° SW 03:28:01 40° W 03:32:02 10° NNW
Meteor 1-5 Rocket 4.2 03:22:56 10° NNW 03:28:18 60° W 03:33:49 10° S
Unknown 4.3 03:27:10 27° WNW 03:29:00 44° NNW 03:32:59 10° NE
USA 81 4.0 03:23:51 10° SSW 03:29:05 63° W 03:34:21 10° N
Cosmos 2084 Rocket 3.4 03:25:29 10° NW 03:29:52 69° SW 03:34:11 10° SSE
USA 267 4.2 03:25:02 10° E 03:31:13 46° NNE 03:37:24 10° NW
Cosmos 2026 Rocket 4.2 03:26:46 13° SSW 03:32:17 53° WNW 03:38:32 10° N
Unknown 4.3 03:30:23 25° WNW 03:32:21 43° NNW 03:36:19 10° NE
Unknown 4.4 03:31:59 24° WNW 03:34:01 42° NNW 03:37:59 10° NE
Cosmos 1417 Rocket 4.5 03:27:58 10° N 03:34:19 77° W 03:40:39 10° S
CZ-2C R/B 4.4 03:32:29 10° NNW 03:35:16 18° WNW 03:35:23 18° WNW
Unknown 4.4 03:33:35 23° WNW 03:35:42 41° NNW 03:39:39 10° NE
ADEOS II 3.7 03:32:59 10° NNW 03:36:14 17° WNW 03:37:22 16° WNW
Cosmos 1536 2.7 03:32:57 10° NNW 03:36:56 73° W 03:40:53 10° S
Unknown 4.4 03:35:11 22° WNW 03:37:22 41° NNW 03:41:19 10° NE
Cosmos 1346 Rocket 2.8 03:33:32 10° NNW 03:37:37 65° W 03:41:40 10° S
Timation 2 Rocket 3.9 03:31:50 10° NW 03:37:40 52° WSW 03:43:24 10° S
Cosmos 44 Rocket 3.7 03:33:34 10° SSW 03:38:33 66° ESE 03:43:27 10° NE
Unknown 4.5 03:38:23 21° WNW 03:40:43 39° NNW 03:44:39 10° NE
Okean 1-7 3.6 03:36:24 10° S 03:40:43 61° E 03:45:04 10° NNE
Cosmos 2227 Rocket 3.9 03:40:19 10° NNW 03:45:34 36° NE 03:50:46 10° ESE
Cosmos 1656 Rocket 4.2 03:41:58 19° WSW 03:45:43 42° WNW 03:51:05 10° NNE
Cosmos 2219 3.9 03:42:13 10° NNW 03:47:52 59° ENE 03:53:26 10° SE
MSX 3.8 03:43:37 10° N 03:49:21 73° WNW 03:55:04 10° SSW
CZ-2C R/B 2.5 03:45:34 10° NNE 03:50:29 83° ESE 03:55:33 10° SSW
CENTAUR R/B 3.5 03:46:12 17° W 03:50:36 37° NW 03:57:17 10° NNE
Cosmos 2369 Rocket 3.7 03:49:20 14° W 03:52:15 20° NW 03:56:23 10° N
COSMO-SKYMED 1 4.1 03:49:01 10° SE 03:53:06 41° ENE 03:57:11 10° N
Cosmos 1655 Rocket 4.0 03:47:36 10° SSW 03:53:48 70° W 04:00:06 10° N
Lacrosse 5 1.8 03:49:57 10° NW 03:55:01 80° SW 04:00:04 10° SE
Cosmos 2297 Rocket 3.4 03:50:55 10° NNW 03:56:20 45° ENE 04:01:44 10° SE
Cosmos 1908 Rocket 3.7 03:53:00 10° NNW 03:57:12 51° W 04:01:24 10° S
CZ-4B R/B 3.2 03:52:58 10° NNE 03:57:32 87° E 04:02:01 10° SSW
Cosmos 1538 Rocket 4.0 03:52:59 10° SSW 03:58:07 62° WNW 04:03:15 10° NNE
Cosmos 44 4.4 03:55:43 15° W 03:58:57 29° NW 04:03:07 10° NNE
S3M 4.0 03:53:48 10° NNW 03:59:53 62° W 04:06:01 10° S
Cosmos 1500 4.1 03:57:32 10° NNW 04:00:43 26° W 04:03:53 10° SSW
SeaSat 1 2.9 04:04:04 10° NNE 04:08:46 44° NW 04:13:25 10° SW
Okean O Rocket 3.4 04:09:21 10° NNE 04:13:32 37° E 04:17:39 10° SSE
Atlas Centaur 2 4.4 04:13:15 10° SW 04:16:54 15° SSW 04:20:50 10° SSE
Meteor 1-27 Rocket 4.4 04:11:40 10° SW 04:17:00 36° WNW 04:22:18 10° N
SL-4 R/B 3.2 04:17:03 10° W 04:19:34 18° SW 04:22:10 10° S
Unknown 4.1 04:17:31 10° NW 04:20:37 42° NNE 04:23:41 10° E
CZ-4B R/B 4.0 04:21:21 10° N 04:24:51 43° WNW 04:28:19 10° SW
Cosmos 1812 4.4 04:24:25 10° WSW 04:26:52 16° WNW 04:29:19 10° NNW
PAYLOAD A 4.4 04:23:27 10° N 04:27:47 36° WNW 04:32:03 10° SW
Cosmos 1743 2.7 04:24:39 10° NNW 04:28:34 73° W 04:32:25 10° S
ATLAS CENTAUR R/B 2.9 04:24:24 10° NNW 04:28:41 40° NE 04:32:38 10° ESE
